This demonstration page uses our WeatherBlox Daily Observations layout. Learn more.

Left ArrowRight Arrow

Hourly Observations for June 29, 2016

Temp ( °F °C ) Dew Point ( °F °C ) Humidity (%) Winds ( mph kmh ) Pressure ( in mb ) Visibility ( mi km ) Precip ( " mm )
12:52 am 00:52 Clear 70 21.1 63 17.2 79 79 Calm 30.07 1018 10 16 0.00 0.00
1:52 am 01:52 Clear 72 22.2 62 16.7 71 71 Calm 30.07 1018 10 16 0.00 0.00
2:52 am 02:52 Clear 70 21.1 62 16.7 76 76 Calm 30.06 1018 10 16 0.00 0.00
3:52 am 03:52 Clear 68 20 62 16.7 81 81 Calm 30.05 1018 10 16 0.00 0.00
4:52 am 04:52 Clear 66 18.9 61 16.1 84 84 SE 5 7 30.06 1018 10 16 0.00 0.00
5:52 am 05:52 Clear 68 20 61 16.1 78 78 ENE 5 7 30.04 1017 10 16 0.00 0.00
6:52 am 06:52 Sunny 67 19.4 62 16.7 84 84 ESE 3 6 30.05 1018 10 16 0.00 0.00
7:52 am 07:52 Sunny 74 23.3 63 17.2 69 69 ESE 8 13 30.06 1018 10 16 0.00 0.00
8:52 am 08:52 Sunny 76 24.4 62 16.7 62 62 SE 12 19 30.09 1019 10 16 0.00 0.00
9:52 am 09:52 Sunny 79 26.1 62 16.7 56 56 SE 8 13 30.09 1019 10 16 0.00 0.00
10:52 am 10:52 Sunny 81 27.2 63 17.2 54 54 SE 8 13 30.08 1019 10 16 0.00 0.00
11:52 am 11:52 Sunny 82 27.8 63 17.2 53 53 SE 9 15 30.07 1018 10 16 0.00 0.00
12:52 pm 12:52 Mostly Cloudy 85 29.4 65 18.3 51 51 SE 6 9 30.06 1018 10 16 0.00 0.00
1:52 pm 13:52 Sunny 85 29.4 66 18.9 53 53 Calm 30.05 1018 10 16 0.00 0.00
2:52 pm 14:52 Partly Cloudy 86 30 66 18.9 51 51 Calm 30.02 1017 10 16 0.00 0.00
3:52 pm 15:52 Mostly Cloudy 85 29.4 66 18.9 53 53 ESE 7 11 30.00 1016 10 16 0.00 0.00
4:52 pm 16:52 Mostly Sunny 85 29.4 66 18.9 53 53 E 7 11 30.00 1016 10 16 0.00 0.00
4:59 pm 16:59 Partly Cloudy with Nearby Thunderstorms 85 29.4 66 18.9 53 53 E 8 13 29.97 1015 10 16 0.00 0.00
5:24 pm 17:24 Mostly Cloudy with Nearby Thunderstorms 79 26 63 17 58 58 S 14 22 29.97 1015 10 16 0.00 0.00
5:38 pm 17:38 Partly Cloudy 79 26 63 17 58 58 SSE 13 20 29.97 1015 10 16 0.00 0.00
5:52 pm 17:52 Mostly Sunny 77 25 63 17.2 62 62 SSE 13 20 30.01 1016 10 16 0.00 0.00
6:52 pm 18:52 Mostly Cloudy 76 24.4 62 16.7 62 62 S 7 11 30.01 1016 10 16 0.00 0.00
7:52 pm 19:52 Partly Cloudy 75 23.9 64 17.8 69 69 ESE 7 11 29.98 1015 10 16 0.00 0.00
8:52 pm 20:52 Mostly Clear 73 22.8 65 18.3 76 76 SSW 5 7 29.98 1015 10 16 0.00 0.00
9:52 pm 21:52 Clear 74 23.3 64 17.8 71 71 SE 3 6 29.99 1016 10 16 0.00 0.00
10:52 pm 22:52 Clear 72 22.2 64 17.8 76 76 SSE 5 7 30.00 1016 10 16 0.00 0.00
11:52 pm 23:52 Clear 72 22.2 65 18.3 79 79 SSE 6 9 30.00 1016 10 16 0.00 0.00

Powered by AerisWeather